Weather History for KJFK - August, 2013

Change the Weather History Date:

Monday, August 19, 2013

  Actual Average Record
Temperature  
Mean Temperature 72 °F 75 °F  
Max Temperature 78 °F 82 °F 90 °F (1966)
Min Temperature 65 °F 68 °F 53 °F (1963)
Degree Days  
Heating Degree Days 0 0  
Month to date heating degree days 0 0  
Since 1 June heating degree days 10 21  
Since 1 July heating degree days 0 0  
Cooling Degree Days 7 10  
Month to date cooling degree days 162 201  
Year to date cooling degree days 823 756  
Since 1 June cooling degree days 797 721  
Growing Degree Days 21 (Base 50)    
Moisture  
Dew Point 60 °F    
Average Humidity 66    
Maximum Humidity 81    
Minimum Humidity 50    
Precipitation  
Precipitation T in 0.12 in 3.10 in (1960)
Month to date precipitation 2.60 2.37  
Year to date precipitation 26.06 27.65  
Snow  
Snow 0.00 in 0.00 in - ()
Month to date snowfall 0.0 0.0  
Since 1 July snowfall 0.0 0.0  
Snow Depth 0.00 in    
Sea Level Pressure  
Sea Level Pressure 30.09 in    
Wind  
Wind Speed 11 mph (WSW)    
Max Wind Speed 22 mph    
Max Gust Speed 25 mph    
Visibility 10 miles    
Events Rain    
T = Trace of Precipitation, MM = Missing Value Source: NWS Daily Summary

Daily Weather History Graph

Daily Weather History Graph

Search for Another Location

Airport or City:

Trip Planner

Search our weather history database for the weather conditions in past years. The results will help you decide how hot, cold, wet, or windy it might be!

Date:

Astronomy

Aug. 19, 2013 Rise Set
Actual Time 6:09 AM EDT 7:46 PM EDT
Civil Twilight 5:40 AM EDT 8:15 PM EDT
Nautical Twilight 5:05 AM EDT 8:50 PM EDT
Astronomical Twilight 4:28 AM EDT 9:27 PM EDT
Moon 6:36 PM EDT (8/19) 4:25 AM EDT (8/19)
Length of Visible Light 14h 35m
Length of Day
13h 37m
Waxing Gibbous, 97% of the Moon is Illuminated
Aug 19
Waxing Gibbous
Aug 20
Full
Aug 28
Last Quarter
Sep 5
New
Sep 12
First Quarter

Hourly Weather History & Observations

Time (EDT) Temp. Dew Point Humidity Pressure Visibility Wind Dir Wind Speed Gust Speed Precip Events Conditions
12:51 AM 66.0 °F 57.9 °F 75% 30.15 in 10.0 mi SSW 8.1 mph - N/A   Overcast
1:51 AM 66.0 °F 57.9 °F 75% 30.14 in 10.0 mi SW 8.1 mph - N/A   Mostly Cloudy
2:51 AM 66.0 °F 57.9 °F 75% 30.13 in 10.0 mi SW 9.2 mph - N/A   Mostly Cloudy
3:51 AM 66.9 °F 57.0 °F 70% 30.13 in 10.0 mi WSW 10.4 mph - N/A   Mostly Cloudy
4:51 AM 66.0 °F 57.9 °F 75% 30.13 in 10.0 mi WSW 10.4 mph - N/A   Mostly Cloudy
5:51 AM 66.9 °F 59.0 °F 76% 30.12 in 10.0 mi West 5.8 mph - N/A   Mostly Cloudy
6:51 AM 66.9 °F 60.1 °F 79% 30.13 in 10.0 mi WSW 8.1 mph - N/A   Mostly Cloudy
7:51 AM 68.0 °F 62.1 °F 81% 30.13 in 10.0 mi WSW 6.9 mph - N/A   Mostly Cloudy
8:51 AM 72.0 °F 63.0 °F 73% 30.12 in 10.0 mi WSW 6.9 mph - N/A   Mostly Cloudy
9:51 AM 75.0 °F 63.0 °F 66% 30.11 in 10.0 mi SW 10.4 mph - N/A   Mostly Cloudy
10:51 AM 75.9 °F 63.0 °F 64% 30.10 in 10.0 mi SW 9.2 mph - N/A   Mostly Cloudy
11:51 AM 75.9 °F 62.1 °F 62% 30.09 in 10.0 mi SW 13.8 mph - N/A   Mostly Cloudy
12:51 PM 75.9 °F 61.0 °F 60% 30.09 in 10.0 mi SW 13.8 mph - N/A   Mostly Cloudy
1:51 PM 77.0 °F 60.1 °F 56% 30.06 in 10.0 mi WSW 15.0 mph - N/A   Overcast
2:51 PM 75.9 °F 60.1 °F 58% 30.06 in 10.0 mi WSW 16.1 mph - N/A   Overcast
3:51 PM 75.9 °F 55.9 °F 50% 30.06 in 10.0 mi SW 17.3 mph - N/A   Overcast
4:51 PM 75.9 °F 57.9 °F 54% 30.06 in 10.0 mi SW 16.1 mph - 0.00 in Rain Light Rain
5:51 PM 75.9 °F 60.1 °F 58% 30.05 in 10.0 mi SW 15.0 mph - 0.00 in   Mostly Cloudy
6:51 PM 75.9 °F 59.0 °F 56% 30.06 in 10.0 mi West 12.7 mph - N/A   Mostly Cloudy
7:51 PM 73.9 °F 60.1 °F 62% 30.05 in 10.0 mi WSW 12.7 mph - 0.00 in   Mostly Cloudy
8:51 PM 72.0 °F 63.0 °F 73% 30.06 in 10.0 mi WSW 11.5 mph - N/A   Mostly Cloudy
9:51 PM 73.0 °F 63.0 °F 71% 30.06 in 10.0 mi WSW 11.5 mph - N/A   Scattered Clouds
10:51 PM 72.0 °F 64.0 °F 76% 30.07 in 10.0 mi West 9.2 mph - N/A   Scattered Clouds
11:51 PM 72.0 °F 64.9 °F 78% 30.07 in 10.0 mi WSW 10.4 mph - N/A   Scattered Clouds